FLOCK 2K-05

Last updated on Wed Feb 14 2018 16:20:52 GMT+0000 (Coordinated Universal Time)

1 42864U 17042AR 18044.67039595 .00006856 00000-0 19979-3 0 9992 2 42864 96.9931 307.5036 0010185 189.8645 170.2401 15.35627055 32675
UTC large
Height (km)
Speed (km/s)
/
Latitude / Longitude
Inclination (degrees)
Orbital Period (minutes)
Azimuth
Elevation
Range (km)
Doppler Factor

Next 0 passes for location: London (51.5072 / 0.1276)

Sorry there are no passes over London.